�N����,����,�~����,�C��,���x,�C��,����,���ϕ���,�ő�u�ԕ���,�ő厞����,���˗�,�I�_���x,�n�����x,�ő啗���N��,DTYPE
"17/07/13","00:10",0.0,24.9,88.7,1003.1,320.0,0.8,1.7,336.3,0.00,22.9,26.2,"00:08:16",1
"17/07/13","00:20",0.0,24.6,89.1,1003.4,268.5,0.5,0.9,305.7,0.00,22.7,26.4,"00:10:24",1
"17/07/13","00:30",0.0,24.5,89.7,1003.1,281.6,0.8,1.4,265.3,0.00,22.7,26.1,"00:24:08",1
"17/07/13","00:40",0.0,24.4,90.0,1002.9,308.0,0.7,1.3,334.0,0.00,22.7,26.1,"00:38:16",1
"17/07/13","00:50",0.0,24.4,90.3,1002.9,336.0,1.2,2.2,330.7,0.00,22.7,25.9,"00:48:32",1
"17/07/13","01:00",0.0,24.5,90.3,1002.6,329.3,1.7,2.9,333.2,0.00,22.8,26.0,"00:57:28",1
"17/07/13","01:10",0.0,24.4,90.0,1002.9,315.6,1.2,2.2,326.7,0.00,22.7,25.8,"01:00:24",1
"17/07/13","01:20",0.0,24.3,90.2,1003.1,282.5,0.7,1.3,310.1,0.00,22.6,25.9,"01:18:48",1
"17/07/13","01:30",0.0,24.3,90.3,1003.1,327.7,1.3,2.2,329.7,0.00,22.6,25.9,"01:26:48",1
"17/07/13","01:40",0.0,24.2,90.4,1003.1,280.4,0.3,0.9,326.6,0.00,22.6,25.8,"01:30:24",1
"17/07/13","01:50",0.0,24.0,90.7,1003.1,300.8,1.0,1.9,304.9,0.00,22.4,25.9,"01:48:56",1
"17/07/13","02:00",0.0,23.9,90.8,1003.4,287.4,0.6,1.4,319.7,0.00,22.3,25.7,"01:51:04",1
"17/07/13","02:10",0.0,23.8,91.1,1003.6,286.2,0.6,1.2,329.2,0.00,22.3,25.8,"02:03:12",1
"17/07/13","02:20",0.0,23.8,91.6,1003.4,315.1,1.0,1.4,338.1,0.00,22.4,25.7,"02:18:32",1
"17/07/13","02:30",0.0,23.9,91.8,1003.4,306.8,0.6,1.4,356.4,0.00,22.5,25.6,"02:20:08",1
"17/07/13","02:40",0.0,23.9,92.1,1003.1,266.8,0.7,1.0,281.8,0.00,22.6,25.7,"02:30:24",1
"17/07/13","02:50",0.0,23.9,92.1,1003.4,280.7,0.7,1.1,299.5,0.00,22.6,25.6,"02:43:04",1
"17/07/13","03:00",0.0,24.0,92.1,1003.1,303.8,0.6,1.4,303.9,0.00,22.7,25.7,"02:59:12",1
"17/07/13","03:10",0.0,24.0,92.0,1003.1,295.1,1.0,1.7,341.7,0.00,22.7,25.6,"03:03:12",1
"17/07/13","03:20",0.0,24.0,91.9,1003.4,295.8,0.6,1.2,329.4,0.00,22.6,25.5,"03:15:12",1
"17/07/13","03:30",0.0,23.9,91.9,1003.4,290.4,0.7,1.1,281.4,0.00,22.5,25.7,"03:24:00",1
"17/07/13","03:40",0.0,23.9,92.1,1003.4,306.1,1.3,2.2,335.3,0.00,22.6,25.6,"03:31:20",1
"17/07/13","03:50",0.0,23.9,92.1,1003.4,294.3,1.1,1.7,324.4,0.00,22.6,25.5,"03:46:32",1
"17/07/13","04:00",0.0,23.9,92.1,1003.4,293.1,0.6,1.2,311.1,0.00,22.6,25.4,"03:59:52",1
"17/07/13","04:10",0.0,23.9,92.0,1003.4,285.8,0.8,1.2,263.7,0.00,22.6,25.7,"04:02:32",1
"17/07/13","04:20",0.0,24.0,92.1,1003.4,316.3,0.8,1.7,310.7,0.00,22.7,25.5,"04:18:24",1
"17/07/13","04:30",0.0,24.1,92.1,1003.8,281.3,0.6,1.8,334.1,0.00,22.8,25.5,"04:20:56",1
"17/07/13","04:40",0.0,24.1,91.9,1003.4,289.9,0.6,1.1,324.5,0.00,22.7,25.6,"04:37:52",1
"17/07/13","04:50",0.0,24.1,91.8,1003.4,282.2,0.7,0.9,322.1,0.00,22.7,25.3,"04:40:32",1
"17/07/13","05:00",0.0,24.1,91.8,1003.4,320.6,0.8,1.2,320.4,0.00,22.7,25.4,"04:50:16",1
"17/07/13","05:10",0.0,24.2,92.2,1003.4,335.9,1.0,1.3,334.1,0.00,22.9,25.7,"05:04:40",1
"17/07/13","05:20",0.0,24.1,92.1,1003.6,300.3,0.8,1.2,271.7,0.00,22.8,25.3,"05:17:44",1
"17/07/13","05:30",0.0,24.1,92.1,1003.6,301.2,1.0,1.8,330.0,0.00,22.8,25.3,"05:22:16",1
"17/07/13","05:40",0.0,24.2,92.1,1003.4,294.4,0.8,1.1,274.6,0.00,22.9,25.3,"05:34:56",1
"17/07/13","05:50",0.0,24.3,92.2,1003.6,297.3,0.5,1.0,332.9,0.00,23.0,25.3,"05:48:40",1
"17/07/13","06:00",0.0,24.4,92.1,1003.6,306.4,0.6,1.0,309.8,0.00,23.1,25.3,"05:50:16",1
"17/07/13","06:10",0.0,24.6,92.3,1003.8,320.4,0.7,1.3,330.8,0.00,23.3,25.3,"06:04:56",1
"17/07/13","06:20",0.0,24.7,91.7,1003.4,317.9,0.6,1.1,321.6,0.01,23.3,25.6,"06:12:16",1
"17/07/13","06:30",0.0,24.9,91.5,1003.8,311.4,0.8,1.4,325.0,0.01,23.5,25.6,"06:22:48",1
"17/07/13","06:40",0.0,25.1,91.2,1003.6,332.5,1.0,1.3,330.0,0.02,23.6,25.3,"06:35:04",1
"17/07/13","06:50",0.0,25.5,90.8,1003.6,291.4,0.6,1.1,336.8,0.03,23.9,25.5,"06:40:08",1
"17/07/13","07:00",0.0,25.6,89.7,1003.6,293.6,0.7,0.9,308.5,0.02,23.8,25.3,"06:50:56",1
"17/07/13","07:10",0.0,25.6,89.5,1003.8,305.5,0.7,1.0,335.0,0.00,23.8,25.7,"07:08:48",1
"17/07/13","07:20",0.0,25.8,89.6,1004.1,323.9,0.8,1.4,325.0,0.02,24.0,25.3,"07:18:48",1
"17/07/13","07:30",0.0,26.0,89.3,1004.1,323.5,1.1,1.4,326.3,0.03,24.1,25.6,"07:21:04",1
"17/07/13","07:40",0.0,26.2,88.7,1003.8,303.1,0.8,1.3,338.0,0.05,24.2,25.5,"07:39:04",1
"17/07/13","07:50",0.0,26.7,86.3,1003.8,320.1,1.0,1.8,323.7,0.10,24.3,25.7,"07:41:20",1
"17/07/13","08:00",0.0,27.2,84.4,1004.3,308.5,0.5,1.3,347.3,0.11,24.4,25.5,"07:59:44",1
"17/07/13","08:10",0.0,27.4,83.7,1003.8,1.8,0.6,1.3,358.1,0.10,24.4,25.6,"08:00:48",1
"17/07/13","08:20",0.0,27.7,83.1,1003.8,288.1,0.3,1.1,351.4,0.13,24.6,25.8,"08:10:32",1
"17/07/13","08:30",0.0,28.5,79.9,1003.8,337.8,0.8,1.6,342.7,0.25,24.7,25.8,"08:24:16",1
"17/07/13","08:40",0.0,28.7,79.2,1003.4,326.7,0.7,1.3,357.2,0.27,24.8,25.9,"08:33:44",1
"17/07/13","08:50",0.0,29.6,77.3,1003.8,194.6,0.5,1.1,231.2,0.30,25.2,26.1,"08:40:08",1
"17/07/13","09:00",0.0,29.2,77.0,1003.6,44.1,0.6,1.7,8.3,0.20,24.8,26.3,"08:57:44",1
"17/07/13","09:10",0.0,28.9,77.4,1003.6,151.2,0.5,1.3,341.8,0.11,24.6,26.3,"09:00:32",1
"17/07/13","09:20",0.0,28.5,77.9,1003.4,196.8,0.5,1.6,196.0,0.09,24.3,26.3,"09:17:36",1
"17/07/13","09:30",0.0,28.7,78.7,1003.4,167.2,1.0,1.8,172.4,0.14,24.7,26.5,"09:27:52",1
"17/07/13","09:40",0.0,28.5,78.3,1002.9,202.5,1.3,2.9,219.9,0.14,24.4,26.5,"09:36:56",1
"17/07/13","09:50",0.0,30.4,73.8,1003.4,170.2,1.1,2.0,201.6,0.41,25.2,26.7,"09:48:00",1
"17/07/13","10:00",0.0,30.6,71.8,1003.6,149.4,1.1,2.0,129.2,0.36,25.0,26.8,"09:56:48",1
"17/07/13","10:10",0.0,31.4,69.9,1004.1,139.1,0.8,2.1,123.9,0.46,25.3,26.9,"10:06:32",1
"17/07/13","10:20",0.0,31.7,68.4,1004.1,39.0,0.6,1.4,54.3,0.44,25.2,27.2,"10:16:16",1
"17/07/13","10:30",0.0,32.0,68.0,1004.5,98.1,0.7,1.9,116.4,0.44,25.4,27.4,"10:26:40",1
"17/07/13","10:40",0.0,31.4,66.2,1004.8,183.5,1.5,4.7,214.7,0.44,24.4,27.4,"10:39:44",1
"17/07/13","10:50",0.0,31.1,67.8,1004.8,181.0,2.1,4.8,221.8,0.40,24.5,27.4,"10:46:48",1
"17/07/13","11:00",0.0,31.8,67.0,1004.5,131.4,1.3,3.1,130.2,0.45,25.0,27.8,"10:52:16",1
"17/07/13","11:10",0.0,32.1,63.7,1004.5,134.4,1.5,2.8,188.6,0.50,24.4,27.7,"11:04:56",1
"17/07/13","11:20",0.0,31.8,65.6,1004.3,131.0,1.3,3.2,133.5,0.38,24.6,28.2,"11:16:56",1
"17/07/13","11:30",0.0,32.0,65.5,1004.3,158.3,1.2,3.2,170.6,0.36,24.8,28.3,"11:27:52",1
"17/07/13","11:40",0.0,32.6,65.8,1004.1,146.9,1.1,2.5,207.4,0.40,25.4,28.2,"11:38:16",1
"17/07/13","11:50",0.0,32.7,65.6,1003.6,161.2,1.6,3.3,210.8,0.49,25.4,28.5,"11:49:12",1
"17/07/13","12:00",0.0,33.2,62.2,1004.1,193.8,1.7,3.9,208.5,0.59,25.0,28.8,"11:58:08",1
"17/07/13","12:10",0.0,32.3,63.6,1004.1,215.5,1.0,2.2,211.6,0.35,24.6,28.9,"12:02:24",1
"17/07/13","12:20",0.0,32.1,64.9,1004.1,174.2,1.1,3.1,187.3,0.24,24.7,29.0,"12:19:20",1
"17/07/13","12:30",0.0,32.8,63.4,1003.6,176.1,1.2,2.5,188.1,0.39,25.0,29.1,"12:24:40",1
"17/07/13","12:40",0.0,33.7,62.8,1003.6,195.3,1.5,3.7,226.4,0.61,25.7,29.2,"12:38:24",1
"17/07/13","12:50",0.0,32.8,62.5,1003.6,168.2,2.0,3.9,187.8,0.40,24.7,29.2,"12:43:36",1
"17/07/13","13:00",0.0,32.2,63.9,1003.4,151.8,1.5,3.7,113.1,0.29,24.5,29.2,"12:50:16",1
"17/07/13","13:10",0.0,32.4,64.3,1002.9,196.8,1.5,3.4,203.6,0.24,24.8,29.2,"13:05:12",1
"17/07/13","13:20",0.0,33.8,56.7,1003.1,182.7,1.5,3.6,194.5,0.57,24.0,29.3,"13:10:56",1
"17/07/13","13:30",0.0,34.3,58.2,1003.6,168.9,1.6,3.6,121.0,0.56,24.9,29.5,"13:23:28",1
"17/07/13","13:40",0.0,34.0,54.5,1003.6,224.9,1.2,3.1,208.8,0.51,23.6,29.4,"13:32:08",1
"17/07/13","13:50",0.0,34.0,57.4,1003.4,197.5,1.1,2.6,217.3,0.44,24.4,29.4,"13:42:56",1
"17/07/13","14:00",0.0,33.7,59.8,1003.1,181.7,2.1,3.4,203.5,0.43,24.8,29.6,"13:54:08",1
"17/07/13","14:10",0.0,34.1,55.6,1003.6,207.8,1.5,3.3,228.2,0.47,24.0,29.7,"14:02:48",1
"17/07/13","14:20",0.0,34.3,56.4,1003.1,219.1,1.5,3.4,220.1,0.48,24.4,29.7,"14:12:32",1
"17/07/13","14:30",0.0,34.6,55.2,1003.6,242.5,1.5,4.5,228.9,0.52,24.3,29.7,"14:20:40",1
"17/07/13","14:40",0.0,34.0,53.6,1003.8,228.3,1.6,3.4,201.0,0.44,23.3,29.8,"14:32:08",1
"17/07/13","14:50",0.0,33.6,54.1,1003.1,249.4,1.1,3.3,224.5,0.32,23.1,29.8,"14:44:08",1
"17/07/13","15:00",0.0,33.7,55.1,1002.9,247.2,1.3,2.9,228.7,0.26,23.5,29.8,"14:51:20",1
"17/07/13","15:10",0.0,34.7,53.9,1002.9,181.4,1.3,3.1,220.2,0.39,24.0,30.0,"15:04:00",1
"17/07/13","15:20",0.0,33.8,52.5,1002.9,204.3,2.1,3.9,214.5,0.29,22.8,30.0,"15:13:20",1
"17/07/13","15:30",0.0,34.3,51.9,1002.4,264.0,0.6,1.6,247.7,0.29,23.0,30.0,"15:29:28",1
"17/07/13","15:40",0.0,34.3,50.2,1002.6,233.1,1.7,3.9,223.2,0.37,22.5,30.1,"15:37:12",1
"17/07/13","15:50",0.0,34.2,47.7,1002.9,262.7,0.8,3.1,230.8,0.28,21.6,30.2,"15:44:32",1
"17/07/13","16:00",0.0,34.0,48.8,1002.9,229.7,1.1,2.2,223.2,0.24,21.7,30.1,"15:53:44",1
"17/07/13","16:10",0.0,34.1,47.1,1002.6,196.5,1.2,2.6,225.6,0.24,21.3,30.2,"16:05:12",1
"17/07/13","16:20",0.0,34.1,48.1,1002.9,186.0,1.1,2.7,193.5,0.21,21.6,30.2,"16:12:40",1
"17/07/13","16:30",0.0,34.4,52.2,1002.6,219.3,1.2,2.6,227.6,0.25,23.2,30.1,"16:23:52",1
"17/07/13","16:40",0.0,33.5,49.8,1002.4,239.1,1.1,2.8,210.4,0.15,21.6,30.0,"16:33:04",1
"17/07/13","16:50",0.0,33.9,47.3,1002.2,205.6,1.2,2.6,222.8,0.21,21.1,30.0,"16:46:00",1
"17/07/13","17:00",0.0,34.0,46.5,1002.6,211.7,1.2,2.5,198.6,0.19,21.0,30.0,"16:51:20",1
"17/07/13","17:10",0.0,34.0,48.4,1002.4,234.1,0.8,2.8,224.3,0.18,21.6,30.1,"17:04:40",1
"17/07/13","17:20",0.0,33.4,48.7,1002.4,228.4,1.1,2.9,246.1,0.11,21.2,30.1,"17:10:16",1
"17/07/13","17:30",0.0,33.7,48.9,1002.4,213.5,1.3,2.6,204.6,0.08,21.5,30.1,"17:26:08",1
"17/07/13","17:40",0.0,34.0,49.6,1002.6,223.6,1.0,2.2,200.0,0.09,22.0,29.9,"17:36:00",1
"17/07/13","17:50",0.0,34.0,49.2,1001.9,217.1,1.6,3.1,208.7,0.08,21.9,29.9,"17:46:08",1
"17/07/13","18:00",0.0,33.5,48.0,1002.2,216.4,1.6,3.7,218.3,0.07,21.0,29.9,"17:53:12",1
"17/07/13","18:10",0.0,33.4,51.2,1001.9,192.6,1.1,2.7,223.8,0.06,22.0,29.7,"18:00:08",1
"17/07/13","18:20",0.0,33.3,50.0,1002.2,210.5,1.3,2.9,227.0,0.07,21.5,29.7,"18:16:00",1
"17/07/13","18:30",0.0,33.5,49.9,1002.6,312.2,0.3,1.3,235.4,0.07,21.7,29.7,"18:20:08",1
"17/07/13","18:40",0.0,33.3,56.9,1002.4,60.3,0.7,1.7,80.9,0.04,23.6,29.5,"18:34:56",1
"17/07/13","18:50",0.0,32.2,61.9,1002.2,118.3,1.0,2.6,124.3,0.01,24.0,29.6,"18:47:28",1
"17/07/13","19:00",0.0,31.7,64.4,1001.9,102.8,0.6,1.8,112.7,0.01,24.2,29.5,"18:51:52",1
"17/07/13","19:10",0.0,31.3,67.4,1001.7,346.6,0.6,1.1,328.2,0.00,24.6,29.5,"19:05:44",1
"17/07/13","19:20",0.0,31.0,67.6,1001.9,35.0,0.7,1.6,28.7,0.00,24.3,29.3,"19:19:36",1
"17/07/13","19:30",0.0,30.6,68.9,1001.7,348.5,0.6,1.6,331.6,0.00,24.3,29.2,"19:29:28",1
"17/07/13","19:40",0.0,30.0,61.5,1001.7,250.8,0.6,2.5,227.0,0.00,21.8,29.2,"19:39:20",1
"17/07/13","19:50",0.0,30.4,57.2,1001.9,273.1,0.8,2.2,325.7,0.00,21.0,29.0,"19:47:04",1
"17/07/13","20:00",0.0,30.3,59.1,1001.2,294.0,0.7,2.8,313.9,0.00,21.5,29.0,"19:52:16",1
"17/07/13","20:10",0.0,29.6,61.8,1001.5,336.1,0.8,1.7,336.4,0.00,21.5,28.7,"20:05:52",1
"17/07/13","20:20",0.0,29.1,61.5,1001.9,309.5,0.8,2.8,334.1,0.00,21.0,28.7,"20:11:20",1
"17/07/13","20:30",0.0,28.7,63.1,1002.2,289.7,0.5,1.3,266.0,0.00,21.0,28.8,"20:22:56",1
"17/07/13","20:40",0.0,28.2,65.3,1002.2,321.8,1.0,2.1,338.0,0.00,21.1,28.6,"20:35:12",1
"17/07/13","20:50",0.0,27.8,67.7,1002.4,319.5,1.0,1.8,326.0,0.00,21.3,28.4,"20:42:16",1
"17/07/13","21:00",0.0,27.6,70.2,1002.6,341.7,1.0,1.8,343.3,0.00,21.7,28.2,"20:56:48",1
"17/07/13","21:10",0.0,27.4,70.4,1002.6,335.3,1.3,3.7,350.5,0.00,21.6,28.2,"21:05:04",1
"17/07/13","21:20",0.0,27.4,69.7,1002.9,331.4,1.3,2.6,323.2,0.00,21.4,28.1,"21:18:08",1
"17/07/13","21:30",0.0,27.4,70.2,1002.6,340.7,1.5,2.8,337.1,0.00,21.5,28.0,"21:22:32",1
"17/07/13","21:40",0.0,27.3,71.4,1002.9,336.5,1.5,4.3,341.8,0.00,21.7,27.8,"21:33:44",1
"17/07/13","21:50",0.0,27.2,72.1,1002.9,337.7,1.5,2.9,342.1,0.00,21.8,27.8,"21:47:04",1
"17/07/13","22:00",0.0,26.9,73.5,1003.1,320.8,0.7,1.2,339.4,0.00,21.8,27.8,"21:55:44",1
"17/07/13","22:10",0.0,26.4,74.9,1003.4,309.6,1.0,1.3,330.7,0.00,21.6,27.6,"22:06:16",1
"17/07/13","22:20",0.0,26.3,76.6,1003.1,310.1,1.2,2.5,336.3,0.00,21.9,27.6,"22:19:44",1
"17/07/13","22:30",0.0,26.4,76.5,1003.1,331.2,2.1,2.9,340.0,0.00,22.0,27.4,"22:25:04",1
"17/07/13","22:40",0.0,26.3,76.0,1003.1,321.3,1.5,2.9,329.8,0.00,21.8,27.5,"22:34:48",1
"17/07/13","22:50",0.0,26.1,77.2,1003.6,326.9,1.3,1.9,319.4,0.00,21.8,27.1,"22:46:40",1
"17/07/13","23:00",0.0,25.9,77.7,1003.4,323.3,1.7,2.8,337.2,0.00,21.7,27.2,"22:59:12",1
"17/07/13","23:10",0.0,25.9,77.9,1003.1,331.7,2.0,3.3,325.5,0.00,21.8,27.3,"23:01:36",1
"17/07/13","23:20",0.0,25.7,78.8,1003.1,330.6,1.2,2.4,335.1,0.00,21.8,27.2,"23:11:12",1
"17/07/13","23:30",0.0,25.5,80.2,1003.4,339.4,0.7,1.3,333.8,0.00,21.9,26.8,"23:25:12",1
"17/07/13","23:40",0.0,25.3,81.3,1003.4,336.9,0.8,1.3,332.7,0.00,21.9,26.9,"23:37:20",1
"17/07/13","23:50",0.0,25.1,81.9,1003.4,288.9,0.7,1.2,307.0,0.00,21.8,27.0,"23:48:40",1
"17/07/13","24:00",0.0,25.0,82.7,1003.1,297.8,0.7,1.3,332.7,0.00,21.9,26.8,"23:52:00",1
